Location: Ebendorf
(52.1827°N, 11.5706°E)
Time: 12:48:21
(UTC+00:00)

Thor Agena Rocket - Pass Details

Date: 15 May 2021
Orbit: 760 x 807 km, 99.0° (Epoch: 20 June)

Event Time Altitude Azimuth Distance (km) Brightness Sun altitude
Rises 00:08:44 0° 11° (NNE) 3,308 8.5 -17.8°
Reaches altitude 10° 00:11:10 10° 5° (N) 2,381 7.3 -17.7°
Maximum altitude 00:16:04 41° 297° (WNW) 1,150 4.5 -17.5°
Enters shadow 00:19:12 21° 238° (WSW) 1,764 4.9 -17.4°
